Location: Cardiff
(53.7833°N, 113.6000°W)
Time: 02:19:00
(UTC+00:00)

RS-15 - Pass Details

Date: 12 December 2023
Orbit: 1893 x 2151 km, 64.8° (Epoch: 24 February)

Event Time Altitude Azimuth Distance (km) Brightness Sun altitude
Rises 02:16:34 0° 191° (S) 5,652 10.6 -25.5°
Reaches altitude 10° 02:20:10 10° 186° (S) 4,639 10.1 -26.0°
Maximum altitude 02:31:36 51° 116° (ESE) 2,511 8.2 -27.7°
Enters shadow 02:34:18 45° 82° (E) 2,663 8.2 -28.1°
